• Em Portugal
  • Lista de países
  • Para 7 dias
  • Temperatura da água
  • Mapas de satélite
  • Mapa do tempo
  • Widgets de tempo
  • user-avatar
    Iniciar Sessão

    Previsão horária em Escaldes-Engordany

    Hoje, 24 Fevereiro, Sábado

    Tempo Temperatura Precipitação Vento Pressão Humidade
    00:00 -7°C° 0 mm 1 m/s 628 mmHg 75%
    01:00 -7°C° 0 mm 1 m/s 628 mmHg 74%
    02:00 -7°C° 0 mm 1 m/s 628 mmHg 73%
    03:00 -7°C° 0 mm 1 m/s 628 mmHg 72%
    04:00 -7°C° 0 mm 1 m/s 628 mmHg 71%
    05:00 -7°C° 0 mm 1 m/s 628 mmHg 70%
    06:00 -7°C° 0 mm 1 m/s 628 mmHg 66%
    07:00 -4°C° 0 mm 1 m/s 629 mmHg 60%
    08:00 -3°C° 0 mm 0 m/s 630 mmHg 55%
    09:00 -1°C° 0 mm 0 m/s 631 mmHg 49%
    10:00 0°C° 0 mm 0 m/s 631 mmHg 48%
    11:00 +3°C° 0 mm 1 m/s 631 mmHg 47%
    12:00 +4°C° 0 mm 1 m/s 632 mmHg 46%
    13:00 +3°C° 0 mm 1 m/s 632 mmHg 48%
    14:00 +3°C° 0 mm 1 m/s 632 mmHg 50%
    15:00 +3°C° 0 mm 1 m/s 631 mmHg 53%
    16:00 +1°C° 0,1 mm 1 m/s 631 mmHg 61%
    17:00 0°C° 0,1 mm 1 m/s 631 mmHg 69%
    18:00 -3°C° 0,1 mm 0 m/s 630 mmHg 77%
    19:00 -2°C° 0 mm 1 m/s 630 mmHg 78%
    20:00 -3°C° 0 mm 1 m/s 631 mmHg 79%
    21:00 -3°C° 0 mm 1 m/s 631 mmHg 81%
    22:00 -3°C° 0 mm 1 m/s 631 mmHg 80%
    23:00 -4°C° 0 mm 1 m/s 631 mmHg 79%

    Amanhã, 25 Fevereiro, Domingo

    Tempo Temperatura Precipitação Vento Pressão Humidade
    00:00 -4°C° 0 mm 1 m/s 631 mmHg 78%
    01:00 -4°C° 0 mm 1 m/s 631 mmHg 75%
    02:00 -6°C° 0 mm 2 m/s 631 mmHg 73%
    03:00 -6°C° 0 mm 2 m/s 630 mmHg 71%
    04:00 -6°C° 0 mm 2 m/s 631 mmHg 70%
    05:00 -6°C° 0 mm 2 m/s 631 mmHg 69%
    06:00 -6°C° 0 mm 2 m/s 631 mmHg 68%
    07:00 -2°C° 0 mm 1 m/s 632 mmHg 64%
    08:00 0°C° 0 mm 1 m/s 632 mmHg 61%
    09:00 +2°C° 0 mm 1 m/s 633 mmHg 57%
    10:00 +4°C° 0 mm 1 m/s 633 mmHg 57%
    11:00 +5°C° 0 mm 1 m/s 634 mmHg 56%
    12:00 +5°C° 0 mm 2 m/s 634 mmHg 56%
    13:00 +5°C° 0 mm 2 m/s 634 mmHg 58%
    14:00 +5°C° 0 mm 2 m/s 633 mmHg 59%
    15:00 +5°C° 0 mm 2 m/s 633 mmHg 61%
    16:00 +3°C° 0 mm 2 m/s 632 mmHg 68%
    17:00 +1°C° 0 mm 2 m/s 632 mmHg 76%
    18:00 -2°C° 0 mm 2 m/s 631 mmHg 83%
    19:00 -3°C° 0 mm 2 m/s 631 mmHg 85%
    20:00 -4°C° 0 mm 2 m/s 631 mmHg 86%
    21:00 -4°C° 0 mm 2 m/s 631 mmHg 87%
    22:00 -4°C° 0 mm 2 m/s 631 mmHg 84%
    23:00 -5°C° 0 mm 2 m/s 631 mmHg 82%

    Depois de amanhã, 26 Fevereiro, Segunda-feira

    Tempo Temperatura Precipitação Vento Pressão Humidade
    00:00 -5°C° 0 mm 2 m/s 631 mmHg 79%
    01:00 -5°C° 0 mm 2 m/s 631 mmHg 78%
    02:00 -6°C° 0 mm 2 m/s 631 mmHg 78%
    03:00 -6°C° 0 mm 2 m/s 631 mmHg 77%
    04:00 -6°C° 0 mm 2 m/s 631 mmHg 77%
    05:00 -6°C° 0 mm 2 m/s 631 mmHg 77%
    06:00 -7°C° 0 mm 2 m/s 630 mmHg 77%
    07:00 -5°C° 0 mm 2 m/s 631 mmHg 73%
    08:00 -4°C° 0 mm 2 m/s 632 mmHg 68%
    09:00 -2°C° 0 mm 2 m/s 632 mmHg 64%
    10:00 -1°C° 0 mm 2 m/s 632 mmHg 60%
    11:00 +1°C° 0 mm 2 m/s 633 mmHg 57%
    12:00 +2°C° 0 mm 2 m/s 633 mmHg 54%
    13:00 +1°C° 0 mm 2 m/s 632 mmHg 56%
    14:00 +1°C° 0 mm 2 m/s 632 mmHg 59%
    15:00 -1°C° 0 mm 2 m/s 631 mmHg 62%
    16:00 -3°C° 0,1 mm 2 m/s 631 mmHg 67%
    17:00 -4°C° 0,1 mm 2 m/s 630 mmHg 72%
    18:00 -6°C° 0,1 mm 2 m/s 630 mmHg 78%
    19:00 -6°C° 0,2 mm 2 m/s 630 mmHg 77%
    20:00 -6°C° 0,2 mm 1 m/s 630 mmHg 76%
    21:00 -6°C° 0,2 mm 1 m/s 630 mmHg 74%
    22:00 -7°C° 0,2 mm 1 m/s 630 mmHg 75%
    23:00 -7°C° 0,2 mm 1 m/s 630 mmHg 75%

    27 Fevereiro, Terça-feira

    Tempo Temperatura Precipitação Vento Pressão Humidade
    00:00 -7°C° 0,2 mm 1 m/s 629 mmHg 75%
    01:00 -7°C° 0,2 mm 1 m/s 629 mmHg 75%
    02:00 -7°C° 0,2 mm 1 m/s 629 mmHg 76%
    03:00 -7°C° 0,2 mm 0 m/s 629 mmHg 76%
    04:00 -7°C° 0,1 mm 0 m/s 629 mmHg 76%
    05:00 -8°C° 0,1 mm 0 m/s 629 mmHg 77%
    06:00 -8°C° 0,1 mm 0 m/s 628 mmHg 77%
    07:00 -7°C° 0,1 mm 1 m/s 629 mmHg 74%
    08:00 -6°C° 0,1 mm 1 m/s 629 mmHg 70%
    09:00 -4°C° 0,1 mm 1 m/s 630 mmHg 67%
    10:00 -3°C° 0,1 mm 1 m/s 630 mmHg 65%
    11:00 -3°C° 0,1 mm 1 m/s 630 mmHg 64%
    12:00 -4°C° 0,1 mm 2 m/s 630 mmHg 62%
    13:00 -4°C° 0,3 mm 2 m/s 630 mmHg 64%
    14:00 -4°C° 0,3 mm 2 m/s 630 mmHg 66%
    15:00 -2°C° 0,3 mm 1 m/s 629 mmHg 68%
    16:00 -3°C° 0,2 mm 1 m/s 629 mmHg 71%
    17:00 -4°C° 0,2 mm 1 m/s 629 mmHg 74%
    18:00 -6°C° 0,2 mm 1 m/s 629 mmHg 77%
    19:00 -6°C° 0,2 mm 1 m/s 629 mmHg 78%
    20:00 -6°C° 0,2 mm 1 m/s 629 mmHg 78%
    21:00 -6°C° 0,2 mm 1 m/s 629 mmHg 79%
    22:00 -6°C° 0,1 mm 1 m/s 629 mmHg 80%
    23:00 -6°C° 0,1 mm 1 m/s 629 mmHg 81%

    28 Fevereiro, Quarta-feira

    Tempo Temperatura Precipitação Vento Pressão Humidade
    00:00 -7°C° 0,1 mm 2 m/s 629 mmHg 82%
    01:00 -7°C° 0 mm 2 m/s 629 mmHg 82%
    02:00 -7°C° 0 mm 2 m/s 629 mmHg 83%
    03:00 -7°C° 0 mm 2 m/s 629 mmHg 83%
    04:00 -7°C° 0,1 mm 2 m/s 628 mmHg 84%
    05:00 -6°C° 0,1 mm 2 m/s 628 mmHg 84%
    06:00 -6°C° 0,1 mm 2 m/s 628 mmHg 85%
    07:00 -5°C° 0,1 mm 2 m/s 628 mmHg 84%
    08:00 -5°C° 0,1 mm 3 m/s 628 mmHg 82%
    09:00 -4°C° 0,1 mm 3 m/s 628 mmHg 81%
    10:00 -3°C° 0,6 mm 4 m/s 628 mmHg 81%
    11:00 -3°C° 0,6 mm 4 m/s 627 mmHg 82%
    12:00 -2°C° 0,6 mm 4 m/s 627 mmHg 82%
    13:00 -1°C° 0,8 mm 4 m/s 627 mmHg 83%
    14:00 -1°C° 0,8 mm 4 m/s 626 mmHg 83%
    15:00 0°C° 0,8 mm 4 m/s 626 mmHg 84%
    16:00 0°C° 0,7 mm 4 m/s 625 mmHg 86%
    17:00 -1°C° 0,7 mm 4 m/s 625 mmHg 89%
    18:00 0°C° 0,7 mm 3 m/s 624 mmHg 91%
    19:00 0°C° 0,8 mm 3 m/s 624 mmHg 92%
    20:00 0°C° 0,8 mm 3 m/s 625 mmHg 92%
    21:00 0°C° 0,8 mm 3 m/s 625 mmHg 92%
    22:00 0°C° 0,8 mm 3 m/s 624 mmHg 93%
    23:00 +1°C° 0,8 mm 3 m/s 624 mmHg 93%

    1 Março, Quinta-feira

    Tempo Temperatura Precipitação Vento Pressão Humidade
    00:00 +1°C° 0,8 mm 3 m/s 624 mmHg 93%
    01:00 +1°C° 0,7 mm 3 m/s 624 mmHg 93%
    02:00 +1°C° 0,7 mm 3 m/s 623 mmHg 93%
    03:00 +1°C° 0,7 mm 3 m/s 623 mmHg 93%
    04:00 +2°C° 0,2 mm 2 m/s 623 mmHg 93%
    05:00 +1°C° 0,2 mm 2 m/s 623 mmHg 93%
    06:00 +1°C° 0,2 mm 2 m/s 623 mmHg 93%
    07:00 +2°C° 0,1 mm 2 m/s 623 mmHg 91%
    08:00 +2°C° 0,1 mm 3 m/s 624 mmHg 90%
    09:00 +3°C° 0,1 mm 3 m/s 624 mmHg 88%
    10:00 +4°C° 0,8 mm 3 m/s 624 mmHg 87%
    11:00 +4°C° 0,8 mm 3 m/s 624 mmHg 86%
    12:00 +4°C° 0,8 mm 4 m/s 624 mmHg 85%
    13:00 +4°C° 0,8 mm 4 m/s 623 mmHg 85%
    14:00 +4°C° 0,8 mm 4 m/s 623 mmHg 85%
    15:00 +4°C° 0,8 mm 4 m/s 622 mmHg 86%
    16:00 +3°C° 0,3 mm 3 m/s 622 mmHg 88%
    17:00 +2°C° 0,3 mm 3 m/s 622 mmHg 90%
    18:00 +2°C° 0,3 mm 3 m/s 621 mmHg 92%
    19:00 +2°C° 0,5 mm 3 m/s 621 mmHg 92%
    20:00 +2°C° 0,5 mm 3 m/s 621 mmHg 93%
    21:00 +2°C° 0,5 mm 3 m/s 621 mmHg 93%
    22:00 +2°C° 0,2 mm 3 m/s 621 mmHg 93%
    23:00 +1°C° 0,2 mm 3 m/s 621 mmHg 93%
    Mostrar mais